M I D A S
Marine Information and Data Acquisition System
Tripno 146 of the Zeeleeuw from 2001-08-02 01:00:02 to 2001-08-02 21:00:00
Back to CruiseResearch ActivitiesStationsMapUnderway DataData graphs

EquipmentUnitsComment
TimeDGPSUTC
LatitudeDGPSDM.mWGS84
LongitudeDGPSDM.mWGS84
TemperatureSBE03/SBE38deg celciusITS90
ConductivitySBE21S/mITS90
SalinitySBE21 Practical Salinity Units
ChlorophylAChelsea fluorimeterg/lCalibrated in Aceton
Missing or incorrect values are displayed as -999
Sea surface data collected by the RV Zeeleeuw from 2001-08-02 01:00:02 to 2001-08-02 21:00:00
                                                                                    Next 1000 lines
Time Latitude Longitude Temperature Conductivity Salinity ChlorophylA
2001-08-02 01:00:12 51°13.676 2°55.925 25.996895 0.075748 53.676958  
2001-08-02 01:00:17 51°13.676 2°55.925 25.995331 0.075748 53.676138  
2001-08-02 01:00:22 51°13.676 2°55.925 25.994922 0.075748 53.676138  
2001-08-02 01:00:27 51°13.676 2°55.925 25.995331 0.075748 53.676138  
2001-08-02 01:00:32 51°13.676 2°55.925 25.995964 0.075748 53.676138  
2001-08-02 01:00:37 51°13.676 2°55.925 25.996336 0.075748 53.675319  
2001-08-02 01:00:42 51°13.676 2°55.925 25.996336 0.075748 53.675319  
2001-08-02 01:00:47 51°13.676 2°55.925 25.996969 0.075748 53.676138  
2001-08-02 01:00:52 51°13.676 2°55.925 25.996671 0.075748 53.675319  
2001-08-02 01:00:57 51°13.676 2°55.925 25.99548 0.075748 53.676138  
2001-08-02 01:01:02 51°13.676 2°55.925 25.995778 0.075748 53.675319  
2001-08-02 01:01:07 51°13.676 2°55.925 25.99589 0.075748 53.675319  
2001-08-02 01:01:12 51°13.676 2°55.925 25.99589 0.075748 53.675319  
2001-08-02 01:01:17 51°13.676 2°55.925 25.996038 0.075748 53.675319  
2001-08-02 01:01:22 51°13.676 2°55.925 25.994996 0.075748 53.676138  
2001-08-02 01:01:27 51°13.676 2°55.925 25.994773 0.075748 53.675319  
2001-08-02 01:01:32 51°13.676 2°55.925 25.994549 0.075748 53.675319  
2001-08-02 01:01:37 51°13.676 2°55.925 25.994773 0.075748 53.675319  
2001-08-02 01:01:41 51°13.676 2°55.925 25.994773 0.075748 53.675319  
2001-08-02 01:01:47 51°13.676 2°55.925 25.995182 0.075748 53.674499  
2001-08-02 01:01:52 51°13.676 2°55.925 25.995778 0.075748 53.675319  
2001-08-02 01:01:57 51°13.676 2°55.925 25.994549 0.075748 53.674499  
2001-08-02 01:02:02 51°13.676 2°55.925 25.992502 0.075748 53.674499  
2001-08-02 01:02:07 51°13.676 2°55.925 25.992353 0.075748 53.674499  
2001-08-02 01:02:12 51°13.676 2°55.925 25.992353 0.075748 53.674499  
2001-08-02 01:02:17 51°13.676 2°55.925 25.991869 0.075748 53.674499  
2001-08-02 01:02:22 51°13.676 2°55.925 25.991645 0.075748 53.674499  
2001-08-02 01:02:27 51°13.676 2°55.926 25.992092 0.075748 53.67368  
2001-08-02 01:02:32 51°13.676 2°55.926 25.992725 0.075748 53.67368  
2001-08-02 01:02:37 51°13.676 2°55.926 25.993209 0.075748 53.674499  
2001-08-02 01:02:42 51°13.676 2°55.926 25.993209 0.075748 53.674499  
2001-08-02 01:02:47 51°13.676 2°55.926 25.993767 0.075748 53.674499  
2001-08-02 01:02:52 51°13.676 2°55.926 25.994289 0.075748 53.674499  
2001-08-02 01:02:57 51°13.676 2°55.926 25.994773 0.075748 53.67368  
2001-08-02 01:03:02 51°13.676 2°55.926 25.994922 0.075748 53.67368  
2001-08-02 01:03:07 51°13.676 2°55.926 25.993916 0.075748 53.67368  
2001-08-02 01:03:12 51°13.676 2°55.926 25.993916 0.075748 53.67368  
2001-08-02 01:03:17 51°13.676 2°55.926 25.992167 0.075748 53.67368  
2001-08-02 01:03:22 51°13.676 2°55.926 25.991012 0.075748 53.67368  
2001-08-02 01:03:27 51°13.676 2°55.926 25.990528 0.075748 53.67368  
2001-08-02 01:03:32 51°13.676 2°55.926 25.990752 0.075748 53.672041  
2001-08-02 01:03:37 51°13.676 2°55.926 25.991012 0.075748 53.67286  
2001-08-02 01:03:42 51°13.676 2°55.926 25.991012 0.075748 53.67286  
2001-08-02 01:03:47 51°13.676 2°55.926 25.989896 0.075748 53.67286  
2001-08-02 01:03:52 51°13.676 2°55.926 25.989598 0.075748 53.67368  
2001-08-02 01:03:57 51°13.676 2°55.926 25.989412 0.075748 53.672041  
2001-08-02 01:04:02 51°13.676 2°55.926 25.989672 0.075748 53.67368  
2001-08-02 01:04:07 51°13.676 2°55.926 25.989672 0.075748 53.67286  
2001-08-02 01:04:12 51°13.676 2°55.926 25.989672 0.075748 53.67286  
2001-08-02 01:04:17 51°13.676 2°55.926 25.989896 0.075748 53.67286  
2001-08-02 01:04:22 51°13.676 2°55.926 25.989747 0.075748 53.67286  
2001-08-02 01:04:27 51°13.676 2°55.926 25.989598 0.075748 53.67368  
2001-08-02 01:04:32 51°13.676 2°55.926 25.989263 0.075748 53.67286  
2001-08-02 01:04:37 51°13.676 2°55.926 25.989412 0.075748 53.67286  
2001-08-02 01:04:42 51°13.676 2°55.926 25.989412 0.075748 53.67286  
2001-08-02 01:04:47 51°13.676 2°55.926 25.989039 0.075748 53.672041  
2001-08-02 01:04:52 51°13.676 2°55.926 25.989598 0.075748 53.672041  
2001-08-02 01:04:57 51°13.676 2°55.926 25.98997 0.075748 53.671221  
2001-08-02 01:05:02 51°13.677 2°55.926 25.989039 0.075748 53.671221  
2001-08-02 01:05:07 51°13.677 2°55.926 25.986917 0.075748 53.671221  
2001-08-02 01:05:12 51°13.677 2°55.926 25.986917 0.075748 53.671221  
2001-08-02 01:05:17 51°13.677 2°55.926 25.986359 0.075748 53.671221  
2001-08-02 01:05:22 51°13.677 2°55.926 25.986284 0.075748 53.672041  
2001-08-02 01:05:27 51°13.677 2°55.926 25.986768 0.075748 53.672041  
2001-08-02 01:05:32 51°13.677 2°55.926 25.986694 0.075748 53.671221  
2001-08-02 01:05:37 51°13.677 2°55.925 25.985577 0.075748 53.671221  
2001-08-02 01:05:42 51°13.677 2°55.925 25.985577 0.075748 53.671221  
2001-08-02 01:05:47 51°13.677 2°55.925 25.984795 0.075748 53.672041  
2001-08-02 01:05:52 51°13.677 2°55.925 25.984795 0.075748 53.671221  
2001-08-02 01:05:57 51°13.677 2°55.925 25.985093 0.075748 53.671221  
2001-08-02 01:06:02 51°13.677 2°55.925 25.985428 0.075748 53.671221  
2001-08-02 01:06:07 51°13.677 2°55.925 25.985428 0.075748 53.670402  
2001-08-02 01:06:12 51°13.677 2°55.925 25.985428 0.075748 53.670402  
2001-08-02 01:06:17 51°13.677 2°55.925 25.984795 0.075748 53.671221  
2001-08-02 01:06:21 51°13.677 2°55.925 25.984869 0.075748 53.671221  
2001-08-02 01:06:27 51°13.677 2°55.925 25.985279 0.075748 53.670402  
2001-08-02 01:06:32 51°13.677 2°55.925 25.985726 0.075748 53.670402  
2001-08-02 01:06:37 51°13.677 2°55.925 25.98621 0.075748 53.669582  
2001-08-02 01:06:42 51°13.677 2°55.925 25.98621 0.075748 53.669582  
2001-08-02 01:06:47 51°13.677 2°55.925 25.9858 0.075748 53.671221  
2001-08-02 01:06:52 51°13.677 2°55.925 25.985502 0.075748 53.670402  
2001-08-02 01:06:57 51°13.677 2°55.925 25.985428 0.075748 53.670402  
2001-08-02 01:07:02 51°13.677 2°55.925 25.984087 0.075748 53.670402  
2001-08-02 01:07:07 51°13.677 2°55.925 25.983752 0.075748 53.670402  
2001-08-02 01:07:12 51°13.677 2°55.925 25.983752 0.075748 53.670402  
2001-08-02 01:07:17 51°13.677 2°55.925 25.984236 0.075748 53.670402  
2001-08-02 01:07:22 51°13.677 2°55.925 25.98472 0.075748 53.669582  
2001-08-02 01:07:27 51°13.677 2°55.925 25.984795 0.075748 53.669582  
2001-08-02 01:07:32 51°13.677 2°55.925 25.984795 0.075748 53.669582  
2001-08-02 01:07:37 51°13.677 2°55.925 25.985018 0.075748 53.670402  
2001-08-02 01:07:42 51°13.677 2°55.925 25.985018 0.075748 53.670402  
2001-08-02 01:07:47 51°13.677 2°55.925 25.984944 0.075748 53.670402  
2001-08-02 01:07:52 51°13.677 2°55.925 25.984795 0.075748 53.669582  
2001-08-02 01:07:57 51°13.677 2°55.925 25.984534 0.075748 53.668763  
2001-08-02 01:08:01 51°13.677 2°55.925 25.98446 0.075748 53.669582  
2001-08-02 01:08:07 51°13.677 2°55.925 25.98472 0.075748 53.669582  
2001-08-02 01:08:12 51°13.677 2°55.924 25.98472 0.075748 53.669582  
2001-08-02 01:08:17 51°13.677 2°55.924 25.984795 0.075748 53.669582  
2001-08-02 01:08:22 51°13.677 2°55.924 25.983454 0.075748 53.668763  
2001-08-02 01:08:27 51°13.677 2°55.924 25.983156 0.075748 53.668763  
2001-08-02 01:08:32 51°13.677 2°55.924 25.983045 0.075748 53.668763  
2001-08-02 01:08:37 51°13.677 2°55.924 25.982114 0.075748 53.668763  
2001-08-02 01:08:42 51°13.677 2°55.924 25.982114 0.075748 53.668763  
2001-08-02 01:08:47 51°13.677 2°55.924 25.982114 0.075748 53.668763  
2001-08-02 01:08:52 51°13.677 2°55.924 25.982523 0.075748 53.668763  
2001-08-02 01:08:57 51°13.677 2°55.924 25.982896 0.075748 53.667944  
2001-08-02 01:09:02 51°13.677 2°55.924 25.982263 0.075748 53.669582  
2001-08-02 01:09:07 51°13.677 2°55.924 25.982598 0.075748 53.667944  
2001-08-02 01:09:12 51°13.677 2°55.924 25.982598 0.075748 53.667944  
2001-08-02 01:09:17 51°13.677 2°55.924 25.98163 0.075748 53.668763  
2001-08-02 01:09:22 51°13.677 2°55.924 25.978949 0.075748 53.668763  
2001-08-02 01:09:27 51°13.677 2°55.924 25.97906 0.075748 53.667944  
2001-08-02 01:09:32 51°13.677 2°55.924 25.979209 0.075748 53.667944  
2001-08-02 01:09:37 51°13.677 2°55.924 25.978502 0.075748 53.667944  
2001-08-02 01:09:42 51°13.677 2°55.924 25.978502 0.075748 53.667944  
2001-08-02 01:09:47 51°13.677 2°55.925 25.979135 0.075748 53.667944  
2001-08-02 01:09:52 51°13.677 2°55.925 25.97906 0.075748 53.667124  
2001-08-02 01:09:57 51°13.677 2°55.925 25.979507 0.075748 53.667944  
2001-08-02 01:10:02 51°13.677 2°55.925 25.98014 0.075748 53.667124  
2001-08-02 01:10:07 51°13.677 2°55.925 25.980215 0.075748 53.667944  
2001-08-02 01:10:12 51°13.677 2°55.925 25.980215 0.075748 53.667944  
2001-08-02 01:10:17 51°13.677 2°55.924 25.980401 0.075748 53.667944  
2001-08-02 01:10:21 51°13.677 2°55.924 25.979545 0.075748 53.667944  
2001-08-02 01:10:27 51°13.677 2°55.924 25.979619 0.075748 53.667124  
2001-08-02 01:10:32 51°13.677 2°55.924 25.979768 0.075748 53.667124  
2001-08-02 01:10:37 51°13.677 2°55.924 25.980215 0.075748 53.667124  
2001-08-02 01:10:42 51°13.677 2°55.924 25.980215 0.075748 53.667124  
2001-08-02 01:10:47 51°13.677 2°55.924 25.979284 0.075748 53.667944  
2001-08-02 01:10:52 51°13.677 2°55.924 25.979768 0.075748 53.667944  
2001-08-02 01:10:57 51°13.677 2°55.924 25.98014 0.075748 53.667124  
2001-08-02 01:11:02 51°13.677 2°55.924 25.98055 0.075748 53.667944  
2001-08-02 01:11:07 51°13.677 2°55.924 25.980215 0.075748 53.667124  
2001-08-02 01:11:12 51°13.677 2°55.924 25.980215 0.075748 53.667124  
2001-08-02 01:11:17 51°13.677 2°55.924 25.979135 0.075748 53.667124  
2001-08-02 01:11:22 51°13.677 2°55.924 25.978651 0.075748 53.667124  
2001-08-02 01:11:27 51°13.677 2°55.924 25.97906 0.075748 53.666305  
2001-08-02 01:11:32 51°13.677 2°55.925 25.977161 0.075748 53.667124  
2001-08-02 01:11:37 51°13.677 2°55.925 25.975821 0.075748 53.666305  
2001-08-02 01:11:42 51°13.677 2°55.925 25.975821 0.075748 53.666305  
2001-08-02 01:11:47 51°13.677 2°55.925 25.975597 0.075748 53.666305  
2001-08-02 01:11:52 51°13.677 2°55.925 25.975821 0.075748 53.666305  
2001-08-02 01:11:57 51°13.677 2°55.926 25.975746 0.075748 53.666305  
2001-08-02 01:12:02 51°13.677 2°55.926 25.976379 0.075748 53.666305  
2001-08-02 01:12:07 51°13.677 2°55.926 25.975337 0.075748 53.666305  
2001-08-02 01:12:12 51°13.677 2°55.926 25.975337 0.075748 53.666305  
2001-08-02 01:12:17 51°13.677 2°55.926 25.975411 0.075748 53.666305  
2001-08-02 01:12:22 51°13.677 2°55.926 25.974964 0.075748 53.666305  
2001-08-02 01:12:27 51°13.677 2°55.926 25.975113 0.075748 53.666305  
2001-08-02 01:12:32 51°13.677 2°55.925 25.975821 0.075748 53.665486  
2001-08-02 01:12:37 51°13.677 2°55.925 25.975821 0.075748 53.666305  
2001-08-02 01:12:42 51°13.677 2°55.925 25.975821 0.075748 53.666305  
2001-08-02 01:12:47 51°13.677 2°55.925 25.974964 0.075748 53.665486  
2001-08-02 01:12:52 51°13.677 2°55.925 25.974406 0.075748 53.665486  
2001-08-02 01:12:57 51°13.677 2°55.924 25.974629 0.075748 53.665486  
2001-08-02 01:13:02 51°13.677 2°55.924 25.974629 0.075748 53.665486  
2001-08-02 01:13:07 51°13.677 2°55.924 25.974704 0.075748 53.666305  
2001-08-02 01:13:12 51°13.677 2°55.924 25.974704 0.075748 53.666305  
2001-08-02 01:13:17 51°13.677 2°55.924 25.974108 0.075748 53.665486  
2001-08-02 01:13:22 51°13.677 2°55.924 25.973624 0.075748 53.665486  
2001-08-02 01:13:27 51°13.677 2°55.924 25.9734 0.075748 53.665486  
2001-08-02 01:13:32 51°13.677 2°55.924 25.973289 0.075748 53.665486  
2001-08-02 01:13:37 51°13.677 2°55.924 25.972134 0.075748 53.665486  
2001-08-02 01:13:42 51°13.677 2°55.924 25.972134 0.075748 53.665486  
2001-08-02 01:13:47 51°13.677 2°55.924 25.97206 0.075748 53.665486  
2001-08-02 01:13:52 51°13.677 2°55.924 25.972507 0.075748 53.665486  
2001-08-02 01:13:57 51°13.677 2°55.924 25.973475 0.075748 53.664666  
2001-08-02 01:14:02 51°13.677 2°55.925 25.973549 0.075748 53.664666  
2001-08-02 01:14:07 51°13.677 2°55.925 25.973475 0.075748 53.664666  
2001-08-02 01:14:12 51°13.677 2°55.925 25.973475 0.075748 53.664666  
2001-08-02 01:14:17 51°13.677 2°55.925 25.973549 0.075748 53.664666  
2001-08-02 01:14:22 51°13.677 2°55.925 25.973475 0.075748 53.664666  
2001-08-02 01:14:27 51°13.677 2°55.925 25.974257 0.075748 53.664666  
2001-08-02 01:14:32 51°13.677 2°55.925 25.973922 0.075748 53.664666  
2001-08-02 01:14:37 51°13.677 2°55.925 25.974406 0.075748 53.664666  
2001-08-02 01:14:42 51°13.676 2°55.925 25.974406 0.075748 53.664666  
2001-08-02 01:14:47 51°13.676 2°55.926 25.97448 0.075748 53.664666  
2001-08-02 01:14:52 51°13.676 2°55.926 25.974108 0.075748 53.664666  
2001-08-02 01:14:57 51°13.676 2°55.926 25.973884 0.075748 53.664666  
2001-08-02 01:15:02 51°13.676 2°55.926 25.973289 0.075748 53.663847  
2001-08-02 01:15:07 51°13.676 2°55.926 25.970458 0.075748 53.663847  
2001-08-02 01:15:12 51°13.676 2°55.926 25.970458 0.075748 53.663847  
2001-08-02 01:15:17 51°13.676 2°55.926 25.969378 0.075748 53.663847  
2001-08-02 01:15:22 51°13.676 2°55.926 25.969155 0.075748 53.664666  
2001-08-02 01:15:27 51°13.676 2°55.926 25.969676 0.075748 53.663847  
2001-08-02 01:15:32 51°13.676 2°55.926 25.970086 0.075748 53.664666  
2001-08-02 01:15:37 51°13.676 2°55.926 25.969304 0.075748 53.663847  
2001-08-02 01:15:42 51°13.676 2°55.926 25.969304 0.075748 53.663847  
2001-08-02 01:15:47 51°13.676 2°55.926 25.968969 0.075748 53.663847  
2001-08-02 01:15:52 51°13.676 2°55.926 25.969155 0.075748 53.663028  
2001-08-02 01:15:57 51°13.676 2°55.926 25.969602 0.075748 53.663847  
2001-08-02 01:16:02 51°13.676 2°55.926 25.969378 0.075748 53.663847  
2001-08-02 01:16:07 51°13.676 2°55.926 25.969713 0.075748 53.663028  
2001-08-02 01:16:12 51°13.676 2°55.926 25.969713 0.075748 53.663028  
2001-08-02 01:16:17 51°13.676 2°55.926 25.968671 0.075748 53.663847  
2001-08-02 01:16:22 51°13.676 2°55.926 25.966697 0.075748 53.663847  
2001-08-02 01:16:27 51°13.676 2°55.926 25.966548 0.075748 53.663028  
2001-08-02 01:16:32 51°13.676 2°55.926 25.967181 0.075748 53.662209  
2001-08-02 01:16:37 51°13.676 2°55.926 25.967553 0.075748 53.663028  
2001-08-02 01:16:42 51°13.676 2°55.926 25.967553 0.075748 53.663028  
2001-08-02 01:16:47 51°13.676 2°55.926 25.968187 0.075748 53.663028  
2001-08-02 01:16:52 51°13.676 2°55.926 25.968336 0.075748 53.663028  
2001-08-02 01:16:57 51°13.676 2°55.926 25.968112 0.075748 53.663028  
2001-08-02 01:17:02 51°13.676 2°55.926 25.968522 0.075748 53.663028  
2001-08-02 01:17:07 51°13.676 2°55.926 25.96882 0.075748 53.663028  
2001-08-02 01:17:12 51°13.676 2°55.926 25.96882 0.075748 53.663028  
2001-08-02 01:17:17 51°13.676 2°55.926 25.969304 0.075748 53.663847  
2001-08-02 01:17:21 51°13.676 2°55.926 25.968671 0.075748 53.662209  
2001-08-02 01:17:27 51°13.676 2°55.926 25.969043 0.075748 53.662209  
2001-08-02 01:17:32 51°13.676 2°55.926 25.968522 0.075748 53.662209  
2001-08-02 01:17:37 51°13.676 2°55.926 25.967032 0.075748 53.663028  
2001-08-02 01:17:42 51°13.676 2°55.926 25.967032 0.075748 53.663028  
2001-08-02 01:17:47 51°13.676 2°55.926 25.966846 0.075748 53.663028  
2001-08-02 01:17:52 51°13.676 2°55.926 25.966771 0.075748 53.66139  
2001-08-02 01:17:57 51°13.676 2°55.926 25.966771 0.075748 53.662209  
2001-08-02 01:18:02 51°13.676 2°55.926 25.967255 0.075748 53.662209  
2001-08-02 01:18:07 51°13.676 2°55.926 25.967181 0.075748 53.662209  
2001-08-02 01:18:12 51°13.676 2°55.926 25.967181 0.075748 53.662209  
2001-08-02 01:18:17 51°13.676 2°55.926 25.967553 0.075748 53.662209  
2001-08-02 01:18:22 51°13.676 2°55.926 25.966548 0.075748 53.662209  
2001-08-02 01:18:27 51°13.676 2°55.926 25.966548 0.075748 53.662209  
2001-08-02 01:18:32 51°13.676 2°55.926 25.966138 0.075748 53.662209  
2001-08-02 01:18:37 51°13.676 2°55.925 25.963866 0.075748 53.66139  
2001-08-02 01:18:42 51°13.676 2°55.925 25.963866 0.075748 53.66139  
2001-08-02 01:18:47 51°13.676 2°55.925 25.962377 0.075748 53.66139  
2001-08-02 01:18:52 51°13.676 2°55.925 25.962079 0.075748 53.662209  
2001-08-02 01:18:57 51°13.676 2°55.925 25.962712 0.075748 53.66139  
2001-08-02 01:19:02 51°13.676 2°55.925 25.963419 0.075748 53.662209  
2001-08-02 01:19:07 51°13.676 2°55.925 25.964202 0.075748 53.66139  
2001-08-02 01:19:12 51°13.676 2°55.926 25.964202 0.075748 53.66139  
2001-08-02 01:19:17 51°13.676 2°55.926 25.963866 0.075748 53.66139  
2001-08-02 01:19:22 51°13.676 2°55.926 25.96435 0.075748 53.66139  
2001-08-02 01:19:27 51°13.676 2°55.926 25.964648 0.075748 53.66139  
2001-08-02 01:19:32 51°13.676 2°55.926 25.965207 0.075748 53.66139  
2001-08-02 01:19:37 51°13.676 2°55.926 25.965058 0.075748 53.660571  
2001-08-02 01:19:42 51°13.676 2°55.926 25.965058 0.075748 53.660571  
2001-08-02 01:19:47 51°13.676 2°55.926 25.965207 0.075748 53.66139  
2001-08-02 01:19:52 51°13.676 2°55.925 25.965282 0.075748 53.66139  
2001-08-02 01:19:57 51°13.676 2°55.925 25.965356 0.075748 53.66139  
2001-08-02 01:20:02 51°13.676 2°55.925 25.965133 0.075748 53.660571  
2001-08-02 01:20:07 51°13.676 2°55.925 25.964984 0.075748 53.660571  
2001-08-02 01:20:12 51°13.676 2°55.925 25.964984 0.075748 53.660571  
2001-08-02 01:20:17 51°13.676 2°55.925 25.963941 0.075748 53.66139  
2001-08-02 01:20:22 51°13.676 2°55.925 25.962861 0.075748 53.660571  
2001-08-02 01:20:27 51°13.676 2°55.925 25.961594 0.075748 53.66139  
2001-08-02 01:20:32 51°13.677 2°55.925 25.961371 0.075748 53.660571  
2001-08-02 01:20:37 51°13.677 2°55.925 25.959397 0.075748 53.66139  
2001-08-02 01:20:42 51°13.677 2°55.925 25.959397 0.075748 53.66139  
2001-08-02 01:20:47 51°13.677 2°55.925 25.959285 0.075748 53.66139  
2001-08-02 01:20:52 51°13.677 2°55.925 25.959844 0.075748 53.660571  
2001-08-02 01:20:57 51°13.677 2°55.925 25.960328 0.075748 53.660571  
2001-08-02 01:21:02 51°13.677 2°55.925 25.960403 0.075748 53.659751  
2001-08-02 01:21:07 51°13.677 2°55.925 25.959956 0.075748 53.660571  
2001-08-02 01:21:12 51°13.677 2°55.925 25.959956 0.075748 53.660571  
2001-08-02 01:21:17 51°13.677 2°55.925 25.957758 0.075748 53.660571  
2001-08-02 01:21:22 51°13.677 2°55.925 25.957423 0.075748 53.659751  
2001-08-02 01:21:27 51°13.677 2°55.925 25.957348 0.075748 53.659751  
2001-08-02 01:21:32 51°13.677 2°55.925 25.957348 0.075748 53.659751  
2001-08-02 01:21:37 51°13.677 2°55.925 25.958615 0.075748 53.660571  
2001-08-02 01:21:42 51°13.677 2°55.925 25.958615 0.075748 53.660571  
2001-08-02 01:21:47 51°13.677 2°55.925 25.957683 0.075748 53.659751  
2001-08-02 01:21:52 51°13.677 2°55.925 25.957497 0.075748 53.660571  
2001-08-02 01:21:57 51°13.677 2°55.925 25.957981 0.075748 53.659751  
2001-08-02 01:22:02 51°13.677 2°55.925 25.95813 0.075748 53.659751  
2001-08-02 01:22:07 51°13.677 2°55.925 25.958279 0.075748 53.659751  
2001-08-02 01:22:12 51°13.677 2°55.925 25.958279 0.075748 53.659751  
2001-08-02 01:22:17 51°13.677 2°55.925 25.957572 0.075748 53.659751  
2001-08-02 01:22:22 51°13.677 2°55.925 25.957497 0.075748 53.660571  
2001-08-02 01:22:27 51°13.677 2°55.925 25.957758 0.075748 53.659751  
2001-08-02 01:22:32 51°13.677 2°55.925 25.957423 0.075748 53.659751  
2001-08-02 01:22:37 51°13.677 2°55.925 25.957572 0.075748 53.659751  
2001-08-02 01:22:42 51°13.677 2°55.925 25.957572 0.075748 53.659751  
2001-08-02 01:22:47 51°13.677 2°55.925 25.958205 0.075748 53.659751  
2001-08-02 01:22:52 51°13.677 2°55.925 25.958615 0.075748 53.659751  
2001-08-02 01:22:57 51°13.677 2°55.925 25.959173 0.075748 53.660571  
2001-08-02 01:23:02 51°13.677 2°55.925 25.959173 0.075748 53.659751  
2001-08-02 01:23:07 51°13.677 2°55.925 25.959099 0.075748 53.658932  
2001-08-02 01:23:12 51°13.677 2°55.925 25.959099 0.075748 53.658932  
2001-08-02 01:23:17 51°13.677 2°55.925 25.959211 0.075748 53.658932  
2001-08-02 01:23:22 51°13.677 2°55.925 25.958689 0.075748 53.659751  
2001-08-02 01:23:27 51°13.677 2°55.925 25.959099 0.075748 53.658932  
2001-08-02 01:23:32 51°13.677 2°55.925 25.958838 0.075748 53.658932  
2001-08-02 01:23:37 51°13.677 2°55.925 25.958279 0.075748 53.658932  
2001-08-02 01:23:42 51°13.677 2°55.925 25.958279 0.075748 53.658932  
2001-08-02 01:23:47 51°13.677 2°55.925 25.957907 0.075748 53.659751  
2001-08-02 01:23:52 51°13.677 2°55.925 25.957497 0.075748 53.659751  
2001-08-02 01:23:57 51°13.677 2°55.925 25.956417 0.075748 53.658932  
2001-08-02 01:24:02 51°13.677 2°55.925 25.956156 0.075748 53.658932  
2001-08-02 01:24:07 51°13.677 2°55.925 25.956603 0.075748 53.658932  
2001-08-02 01:24:12 51°13.677 2°55.925 25.956603 0.075748 53.658932  
2001-08-02 01:24:17 51°13.677 2°55.925 25.956492 0.075748 53.658932  
2001-08-02 01:24:22 51°13.677 2°55.925 25.956566 0.075748 53.658113  
2001-08-02 01:24:27 51°13.677 2°55.925 25.955374 0.075748 53.658932  
2001-08-02 01:24:32 51°13.677 2°55.925 25.954778 0.075748 53.658113  
2001-08-02 01:24:37 51°13.677 2°55.925 25.954219 0.075748 53.658932  
2001-08-02 01:24:42 51°13.677 2°55.925 25.954219 0.075748 53.658932  
2001-08-02 01:24:47 51°13.677 2°55.925 25.953698 0.075748 53.658932  
2001-08-02 01:24:52 51°13.677 2°55.925 25.95381 0.075748 53.658932  
2001-08-02 01:24:57 51°13.677 2°55.925 25.953512 0.075748 53.658932  
2001-08-02 01:25:02 51°13.677 2°55.925 25.953735 0.075748 53.658113  
2001-08-02 01:25:07 51°13.677 2°55.925 25.954145 0.075748 53.658113  
2001-08-02 01:25:12 51°13.677 2°55.925 25.954145 0.075748 53.658113  
2001-08-02 01:25:17 51°13.677 2°55.925 25.954145 0.075748 53.658113  
2001-08-02 01:25:22 51°13.677 2°55.925 25.954666 0.075748 53.658113  
2001-08-02 01:25:27 51°13.677 2°55.925 25.954853 0.075748 53.658113  
2001-08-02 01:25:32 51°13.677 2°55.925 25.954853 0.075748 53.658932  
2001-08-02 01:25:37 51°13.677 2°55.925 25.955449 0.075748 53.658113  
2001-08-02 01:25:42 51°13.677 2°55.925 25.955449 0.075748 53.658113  
2001-08-02 01:25:47 51°13.677 2°55.925 25.954778 0.075748 53.658113  
2001-08-02 01:25:52 51°13.677 2°55.925 25.9553 0.075748 53.658932  
2001-08-02 01:25:57 51°13.677 2°55.925 25.954927 0.075748 53.657294  
2001-08-02 01:26:02 51°13.677 2°55.925 25.954108 0.075748 53.658113  
2001-08-02 01:26:07 51°13.677 2°55.925 25.953735 0.075748 53.658113  
2001-08-02 01:26:12 51°13.677 2°55.925 25.953735 0.075748 53.658113  
2001-08-02 01:26:17 51°13.677 2°55.925 25.953884 0.075748 53.658113  
2001-08-02 01:26:22 51°13.677 2°55.925 25.95381 0.075748 53.658932  
2001-08-02 01:26:27 51°13.677 2°55.925 25.953586 0.075748 53.657294  
2001-08-02 01:26:32 51°13.677 2°55.925 25.953176 0.075748 53.657294  
2001-08-02 01:26:37 51°13.677 2°55.925 25.953549 0.075748 53.657294  
2001-08-02 01:26:42 51°13.677 2°55.925 25.953549 0.075748 53.657294  
2001-08-02 01:26:47 51°13.677 2°55.925 25.953325 0.075748 53.657294  
2001-08-02 01:26:52 51°13.677 2°55.925 25.951835 0.075748 53.658113  
2001-08-02 01:26:57 51°13.677 2°55.925 25.950904 0.075748 53.657294  
2001-08-02 01:27:02 51°13.677 2°55.925 25.949824 0.075748 53.657294  
2001-08-02 01:27:07 51°13.677 2°55.925 25.949638 0.075748 53.657294  
2001-08-02 01:27:12 51°13.677 2°55.925 25.949638 0.075748 53.657294  
2001-08-02 01:27:17 51°13.677 2°55.926 25.950569 0.075748 53.657294  
2001-08-02 01:27:22 51°13.677 2°55.926 25.950345 0.075748 53.656475  
2001-08-02 01:27:27 51°13.677 2°55.926 25.950085 0.075748 53.657294  
2001-08-02 01:27:32 51°13.677 2°55.926 25.950681 0.075748 53.657294  
2001-08-02 01:27:37 51°13.677 2°55.926 25.949638 0.075748 53.656475  
2001-08-02 01:27:42 51°13.677 2°55.926 25.949638 0.075748 53.656475  
2001-08-02 01:27:47 51°13.677 2°55.926 25.948855 0.075748 53.657294  
2001-08-02 01:27:52 51°13.677 2°55.926 25.948669 0.075748 53.657294  
2001-08-02 01:27:57 51°13.677 2°55.926 25.94934 0.075748 53.657294  
2001-08-02 01:28:02 51°13.677 2°55.926 25.949638 0.075748 53.656475  
2001-08-02 01:28:07 51°13.677 2°55.926 25.950085 0.075748 53.656475  
2001-08-02 01:28:12 51°13.677 2°55.926 25.950085 0.075748 53.656475  
2001-08-02 01:28:17 51°13.677 2°55.926 25.950196 0.075748 53.656475  
2001-08-02 01:28:22 51°13.677 2°55.926 25.949787 0.075748 53.657294  
2001-08-02 01:28:27 51°13.677 2°55.926 25.949489 0.075748 53.657294  
2001-08-02 01:28:32 51°13.677 2°55.926 25.948669 0.075748 53.656475  
2001-08-02 01:28:37 51°13.677 2°55.926 25.948781 0.075748 53.657294  
2001-08-02 01:28:42 51°13.677 2°55.926 25.948781 0.075748 53.657294  
2001-08-02 01:28:47 51°13.677 2°55.925 25.948855 0.075748 53.656475  
2001-08-02 01:28:52 51°13.677 2°55.925 25.94893 0.075748 53.656475  
2001-08-02 01:28:57 51°13.677 2°55.925 25.948669 0.075748 53.656475  
2001-08-02 01:29:02 51°13.677 2°55.925 25.94852 0.075748 53.657294  
2001-08-02 01:29:07 51°13.677 2°55.925 25.947663 0.075748 53.656475  
2001-08-02 01:29:12 51°13.677 2°55.925 25.947663 0.075748 53.656475  
2001-08-02 01:29:17 51°13.677 2°55.925 25.948222 0.075748 53.656475  
2001-08-02 01:29:22 51°13.677 2°55.925 25.946546 0.075748 53.656475  
2001-08-02 01:29:27 51°13.677 2°55.926 25.946099 0.075748 53.655656  
2001-08-02 01:29:32 51°13.677 2°55.926 25.944981 0.075748 53.657294  
2001-08-02 01:29:37 51°13.677 2°55.926 25.943752 0.075748 53.656475  
2001-08-02 01:29:42 51°13.677 2°55.926 25.943752 0.075748 53.656475  
2001-08-02 01:29:47 51°13.677 2°55.926 25.943044 0.075748 53.656475  
2001-08-02 01:29:52 51°13.677 2°55.926 25.943379 0.075748 53.656475  
2001-08-02 01:29:57 51°13.677 2°55.926 25.943826 0.075748 53.656475  
2001-08-02 01:30:02 51°13.677 2°55.926 25.944348 0.075748 53.656475  
2001-08-02 01:30:07 51°13.677 2°55.926 25.944608 0.075748 53.655656  
2001-08-02 01:30:12 51°13.677 2°55.926 25.944608 0.075748 53.655656  
2001-08-02 01:30:17 51°13.677 2°55.926 25.944832 0.075748 53.655656  
2001-08-02 01:30:22 51°13.677 2°55.926 25.94554 0.075748 53.657294  
2001-08-02 01:30:27 51°13.677 2°55.926 25.94595 0.075748 53.656475  
2001-08-02 01:30:32 51°13.677 2°55.926 25.945391 0.075748 53.655656  
2001-08-02 01:30:37 51°13.677 2°55.926 25.944273 0.075748 53.656475  
2001-08-02 01:30:42 51°13.677 2°55.926 25.944273 0.075748 53.656475  
2001-08-02 01:30:47 51°13.677 2°55.926 25.944273 0.075748 53.655656  
2001-08-02 01:30:52 51°13.677 2°55.926 25.944273 0.075748 53.657294  
2001-08-02 01:30:57 51°13.677 2°55.926 25.944534 0.075748 53.656475  
2001-08-02 01:31:02 51°13.677 2°55.926 25.944869 0.075748 53.655656  
2001-08-02 01:31:07 51°13.677 2°55.926 25.944199 0.075748 53.655656  
2001-08-02 01:31:12 51°13.677 2°55.926 25.944199 0.075748 53.655656  
2001-08-02 01:31:17 51°13.677 2°55.926 25.944236 0.075748 53.655656  
2001-08-02 01:31:22 51°13.677 2°55.926 25.943975 0.075748 53.655656  
2001-08-02 01:31:27 51°13.677 2°55.926 25.944348 0.075748 53.655656  
2001-08-02 01:31:32 51°13.677 2°55.926 25.942857 0.075748 53.654838  
2001-08-02 01:31:37 51°13.677 2°55.926 25.942485 0.075748 53.655656  
2001-08-02 01:31:42 51°13.677 2°55.926 25.942485 0.075748 53.655656  
2001-08-02 01:31:47 51°13.677 2°55.926 25.942001 0.075748 53.655656  
2001-08-02 01:31:52 51°13.677 2°55.926 25.941926 0.075748 53.655656  
2001-08-02 01:31:57 51°13.677 2°55.926 25.941926 0.075748 53.655656  
2001-08-02 01:32:02 51°13.677 2°55.926 25.942261 0.075748 53.655656  
2001-08-02 01:32:07 51°13.677 2°55.926 25.94215 0.075748 53.655656  
2001-08-02 01:32:12 51°13.677 2°55.926 25.94215 0.075748 53.655656  
2001-08-02 01:32:17 51°13.677 2°55.926 25.942708 0.075748 53.654838  
2001-08-02 01:32:22 51°13.677 2°55.926 25.94092 0.075748 53.654838  
2001-08-02 01:32:27 51°13.677 2°55.926 25.939653 0.075748 53.654838  
2001-08-02 01:32:32 51°13.677 2°55.926 25.939579 0.075748 53.655656  
2001-08-02 01:32:37 51°13.677 2°55.925 25.938797 0.075748 53.654838  
2001-08-02 01:32:42 51°13.677 2°55.925 25.938797 0.075748 53.654838  
2001-08-02 01:32:47 51°13.677 2°55.925 25.938685 0.075748 53.655656  
2001-08-02 01:32:52 51°13.677 2°55.925 25.937977 0.075748 53.654838  
2001-08-02 01:32:57 51°13.677 2°55.925 25.937679 0.075748 53.654838  
2001-08-02 01:33:02 51°13.677 2°55.925 25.938312 0.075748 53.655656  
2001-08-02 01:33:07 51°13.677 2°55.925 25.938797 0.075748 53.654838  
2001-08-02 01:33:12 51°13.677 2°55.925 25.938797 0.075748 53.654838  
2001-08-02 01:33:17 51°13.677 2°55.925 25.938946 0.075748 53.654838  
2001-08-02 01:33:22 51°13.677 2°55.925 25.939653 0.075748 53.655656  
2001-08-02 01:33:27 51°13.677 2°55.925 25.93902 0.075748 53.655656  
2001-08-02 01:33:32 51°13.677 2°55.925 25.938089 0.075748 53.654838  
2001-08-02 01:33:37 51°13.677 2°55.925 25.937269 0.075748 53.654838  
2001-08-02 01:33:42 51°13.677 2°55.925 25.937269 0.075748 53.654838  
2001-08-02 01:33:47 51°13.677 2°55.925 25.937455 0.075748 53.654838  
2001-08-02 01:33:52 51°13.677 2°55.925 25.938163 0.075748 53.656475  
2001-08-02 01:33:57 51°13.677 2°55.925 25.938312 0.075748 53.654019  
2001-08-02 01:34:02 51°13.677 2°55.925 25.938871 0.075748 53.654838  
2001-08-02 01:34:07 51°13.677 2°55.925 25.936971 0.075748 53.654838  
2001-08-02 01:34:12 51°13.677 2°55.925 25.936971 0.075748 53.654838  
2001-08-02 01:34:17 51°13.677 2°55.925 25.935667 0.075748 53.654838  
2001-08-02 01:34:22 51°13.677 2°55.925 25.93522 0.075748 53.654019  
2001-08-02 01:34:27 51°13.677 2°55.925 25.934996 0.075748 53.654019  
2001-08-02 01:34:32 51°13.677 2°55.925 25.934996 0.075748 53.654019  
2001-08-02 01:34:37 51°13.677 2°55.925 25.933655 0.075748 53.654838  
2001-08-02 01:34:42 51°13.677 2°55.925 25.933655 0.075748 53.654838  
2001-08-02 01:34:47 51°13.677 2°55.925 25.933282 0.075748 53.654838  
2001-08-02 01:34:52 51°13.677 2°55.925 25.933357 0.075748 53.654019  
2001-08-02 01:34:57 51°13.677 2°55.925 25.933357 0.075748 53.654838  
2001-08-02 01:35:02 51°13.677 2°55.925 25.933841 0.075748 53.654019  
2001-08-02 01:35:07 51°13.677 2°55.925 25.934363 0.075748 53.654838  
2001-08-02 01:35:12 51°13.677 2°55.925 25.934363 0.075748 53.654838  
2001-08-02 01:35:17 51°13.677 2°55.925 25.934698 0.075748 53.654019  
2001-08-02 01:35:22 51°13.677 2°55.925 25.934922 0.075748 53.654838  
2001-08-02 01:35:27 51°13.677 2°55.925 25.935257 0.075748 53.654838  
2001-08-02 01:35:32 51°13.677 2°55.925 25.933133 0.075748 53.654838  
2001-08-02 01:35:37 51°13.677 2°55.925 25.932053 0.075748 53.654019  
2001-08-02 01:35:42 51°13.677 2°55.925 25.932053 0.075748 53.654019  
2001-08-02 01:35:47 51°13.677 2°55.925 25.931643 0.075748 53.654019  
2001-08-02 01:35:52 51°13.677 2°55.925 25.931941 0.075748 53.654838  
2001-08-02 01:35:57 51°13.677 2°55.925 25.931941 0.075748 53.654019  
2001-08-02 01:36:02 51°13.677 2°55.925 25.932351 0.075748 53.654019  
2001-08-02 01:36:07 51°13.677 2°55.925 25.931941 0.075748 53.654019  
2001-08-02 01:36:12 51°13.677 2°55.925 25.931941 0.075748 53.654019  
2001-08-02 01:36:17 51°13.677 2°55.925 25.931643 0.075748 53.654838  
2001-08-02 01:36:22 51°13.677 2°55.925 25.930227 0.075748 53.654019  
2001-08-02 01:36:27 51°13.677 2°55.925 25.929743 0.075748 53.654019  
2001-08-02 01:36:32 51°13.677 2°55.925 25.92896 0.075748 53.654019  
2001-08-02 01:36:37 51°13.677 2°55.925 25.929109 0.075748 53.654019  
2001-08-02 01:36:42 51°13.677 2°55.925 25.929109 0.075748 53.654019  
2001-08-02 01:36:47 51°13.677 2°55.925 25.929519 0.075748 53.654019  
2001-08-02 01:36:52 51°13.677 2°55.925 25.928401 0.075748 53.654838  
2001-08-02 01:36:57 51°13.677 2°55.925 25.927619 0.075748 53.654019  
2001-08-02 01:37:02 51°13.677 2°55.925 25.927768 0.075748 53.654019  
2001-08-02 01:37:07 51°13.677 2°55.925 25.92706 0.075748 53.654019  
2001-08-02 01:37:12 51°13.677 2°55.925 25.92706 0.075748 53.654019  
2001-08-02 01:37:17 51°13.677 2°55.925 25.92706 0.075748 53.654019  
2001-08-02 01:37:22 51°13.677 2°55.925 25.92747 0.075748 53.654019  
2001-08-02 01:37:27 51°13.677 2°55.925 25.927619 0.075748 53.6532  
2001-08-02 01:37:32 51°13.677 2°55.925 25.926352 0.075748 53.654019  
2001-08-02 01:37:37 51°13.677 2°55.925 25.926612 0.075748 53.654019  
2001-08-02 01:37:42 51°13.677 2°55.925 25.926612 0.075748 53.654019  
2001-08-02 01:37:47 51°13.677 2°55.925 25.926463 0.075748 53.6532  
2001-08-02 01:37:52 51°13.677 2°55.925 25.926128 0.075748 53.654019  
2001-08-02 01:37:57 51°13.677 2°55.925 25.926612 0.075748 53.654019  
2001-08-02 01:38:02 51°13.677 2°55.925 25.926985 0.075748 53.654019  
2001-08-02 01:38:07 51°13.677 2°55.925 25.926538 0.075748 53.654019  
2001-08-02 01:38:12 51°13.677 2°55.925 25.926538 0.075748 53.654019  
2001-08-02 01:38:17 51°13.677 2°55.925 25.926426 0.075748 53.654019  
2001-08-02 01:38:22 51°13.677 2°55.925 25.926724 0.075748 53.654019  
2001-08-02 01:38:27 51°13.677 2°55.925 25.927134 0.075748 53.654019  
2001-08-02 01:38:32 51°13.677 2°55.925 25.927246 0.075748 53.654019  
2001-08-02 01:38:37 51°13.677 2°55.925 25.927619 0.075748 53.654019  
2001-08-02 01:38:42 51°13.677 2°55.925 25.927619 0.075748 53.654019  
2001-08-02 01:38:47 51°13.677 2°55.925 25.927693 0.075748 53.6532  
2001-08-02 01:38:52 51°13.677 2°55.925 25.925196 0.075748 53.6532  
2001-08-02 01:38:57 51°13.677 2°55.925 25.924898 0.075748 53.6532  
2001-08-02 01:39:02 51°13.677 2°55.925 25.924973 0.075748 53.6532  
2001-08-02 01:39:07 51°13.677 2°55.925 25.925047 0.075748 53.654019  
2001-08-02 01:39:12 51°13.677 2°55.925 25.925047 0.075748 53.654019  
2001-08-02 01:39:17 51°13.677 2°55.925 25.925122 0.075748 53.6532  
2001-08-02 01:39:22 51°13.677 2°55.925 25.925085 0.075748 53.6532  
2001-08-02 01:39:27 51°13.677 2°55.925 25.925569 0.075748 53.6532  
2001-08-02 01:39:32 51°13.677 2°55.925 25.926091 0.075748 53.6532  
2001-08-02 01:39:37 51°13.677 2°55.925 25.925904 0.075748 53.654019  
2001-08-02 01:39:42 51°13.677 2°55.925 25.925904 0.075748 53.654019  
2001-08-02 01:39:47 51°13.677 2°55.925 25.924004 0.075748 53.6532  
2001-08-02 01:39:52 51°13.677 2°55.925 25.923333 0.075748 53.654019  
2001-08-02 01:39:57 51°13.677 2°55.925 25.923408 0.075748 53.6532  
2001-08-02 01:40:02 51°13.677 2°55.925 25.922961 0.075748 53.6532  
2001-08-02 01:40:07 51°13.677 2°55.925 25.923296 0.075748 53.6532  
2001-08-02 01:40:12 51°13.677 2°55.925 25.923296 0.075748 53.6532  
2001-08-02 01:40:17 51°13.677 2°55.925 25.923557 0.075748 53.6532  
2001-08-02 01:40:22 51°13.677 2°55.925 25.92378 0.075748 53.652381  
2001-08-02 01:40:27 51°13.677 2°55.925 25.923706 0.075748 53.6532  
2001-08-02 01:40:32 51°13.677 2°55.925 25.922737 0.075748 53.652381  
2001-08-02 01:40:37 51°13.677 2°55.925 25.922141 0.075748 53.652381  
2001-08-02 01:40:42 51°13.677 2°55.925 25.922141 0.075748 53.652381  
2001-08-02 01:40:47 51°13.677 2°55.925 25.921954 0.075748 53.6532  
2001-08-02 01:40:52 51°13.677 2°55.925 25.920911 0.075748 53.6532  
2001-08-02 01:40:57 51°13.677 2°55.925 25.92065 0.075748 53.6532  
2001-08-02 01:41:02 51°13.677 2°55.925 25.920799 0.075748 53.6532  
2001-08-02 01:41:07 51°13.677 2°55.925 25.921172 0.075748 53.652381  
2001-08-02 01:41:12 51°13.677 2°55.924 25.921172 0.075748 53.652381  
2001-08-02 01:41:17 51°13.677 2°55.924 25.921656 0.075748 53.6532  
2001-08-02 01:41:22 51°13.677 2°55.924 25.921321 0.075748 53.652381  
2001-08-02 01:41:27 51°13.677 2°55.924 25.921209 0.075748 53.6532  
2001-08-02 01:41:32 51°13.677 2°55.924 25.921545 0.075748 53.652381  
2001-08-02 01:41:37 51°13.677 2°55.924 25.921582 0.075748 53.652381  
2001-08-02 01:41:42 51°13.677 2°55.924 25.921582 0.075748 53.652381  
2001-08-02 01:41:47 51°13.677 2°55.924 25.920501 0.075748 53.6532  
2001-08-02 01:41:52 51°13.677 2°55.924 25.920464 0.075748 53.652381  
2001-08-02 01:41:57 51°13.677 2°55.924 25.918973 0.075748 53.6532  
2001-08-02 01:42:02 51°13.677 2°55.924 25.918638 0.075748 53.6532  
2001-08-02 01:42:07 51°13.677 2°55.924 25.918824 0.075748 53.6532  
2001-08-02 01:42:12 51°13.677 2°55.924 25.918824 0.075748 53.6532  
2001-08-02 01:42:17 51°13.677 2°55.924 25.918675 0.075748 53.652381  
2001-08-02 01:42:22 51°13.677 2°55.924 25.918526 0.075748 53.6532  
2001-08-02 01:42:27 51°13.677 2°55.924 25.918638 0.075748 53.652381  
2001-08-02 01:42:32 51°13.677 2°55.924 25.9186 0.075748 53.652381  
2001-08-02 01:42:37 51°13.677 2°55.924 25.919122 0.075748 53.652381  
2001-08-02 01:42:42 51°13.677 2°55.924 25.919122 0.075748 53.652381  
2001-08-02 01:42:47 51°13.677 2°55.924 25.91942 0.075748 53.652381  
2001-08-02 01:42:52 51°13.677 2°55.924 25.919495 0.075748 53.6532  
2001-08-02 01:42:57 51°13.677 2°55.924 25.91793 0.075748 53.652381  
2001-08-02 01:43:02 51°13.677 2°55.924 25.917259 0.075748 53.6532  
2001-08-02 01:43:07 51°13.677 2°55.924 25.916588 0.075748 53.652381  
2001-08-02 01:43:12 51°13.677 2°55.924 25.916588 0.075748 53.652381  
2001-08-02 01:43:17 51°13.677 2°55.924 25.915694 0.075748 53.652381  
2001-08-02 01:43:22 51°13.677 2°55.924 25.915805 0.075748 53.652381  
2001-08-02 01:43:27 51°13.677 2°55.924 25.916513 0.075748 53.6532  
2001-08-02 01:43:32 51°13.677 2°55.924 25.917333 0.075748 53.652381  
2001-08-02 01:43:37 51°13.677 2°55.924 25.917631 0.075748 53.652381  
2001-08-02 01:43:42 51°13.677 2°55.924 25.917631 0.075748 53.652381  
2001-08-02 01:43:47 51°13.677 2°55.924 25.918004 0.075748 53.652381  
2001-08-02 01:43:52 51°13.677 2°55.924 25.916923 0.075748 53.652381  
2001-08-02 01:43:57 51°13.677 2°55.924 25.9167 0.075748 53.652381  
2001-08-02 01:44:02 51°13.677 2°55.924 25.915619 0.075748 53.652381  
2001-08-02 01:44:07 51°13.677 2°55.924 25.914464 0.075748 53.652381  
2001-08-02 01:44:12 51°13.677 2°55.924 25.914464 0.075748 53.652381  
2001-08-02 01:44:17 51°13.677 2°55.924 25.914464 0.075748 53.652381  
2001-08-02 01:44:22 51°13.677 2°55.924 25.914613 0.075748 53.651562  
2001-08-02 01:44:27 51°13.677 2°55.924 25.915097 0.075748 53.651562  
2001-08-02 01:44:32 51°13.677 2°55.924 25.915619 0.075748 53.6532  
2001-08-02 01:44:37 51°13.677 2°55.924 25.916141 0.075748 53.652381  
2001-08-02 01:44:42 51°13.677 2°55.924 25.916141 0.075748 53.652381  
2001-08-02 01:44:47 51°13.677 2°55.924 25.91588 0.075748 53.651562  
2001-08-02 01:44:52 51°13.677 2°55.924 25.915321 0.075748 53.652381  
2001-08-02 01:44:57 51°13.677 2°55.924 25.915395 0.075748 53.652381  
2001-08-02 01:45:02 51°13.677 2°55.924 25.915805 0.075748 53.652381  
2001-08-02 01:45:07 51°13.676 2°55.924 25.915768 0.075748 53.652381  
2001-08-02 01:45:12 51°13.676 2°55.924 25.915768 0.075748 53.652381  
2001-08-02 01:45:17 51°13.676 2°55.924 25.915544 0.075748 53.652381  
2001-08-02 01:45:22 51°13.676 2°55.924 25.915321 0.075748 53.6532  
2001-08-02 01:45:27 51°13.676 2°55.924 25.914501 0.075748 53.651562  
2001-08-02 01:45:32 51°13.676 2°55.924 25.914613 0.075748 53.652381  
2001-08-02 01:45:37 51°13.676 2°55.924 25.915097 0.075748 53.651562  
2001-08-02 01:45:42 51°13.676 2°55.924 25.915097 0.075748 53.651562  
2001-08-02 01:45:47 51°13.676 2°55.924 25.915395 0.075748 53.652381  
2001-08-02 01:45:52 51°13.676 2°55.923 25.914315 0.075748 53.652381  
2001-08-02 01:45:57 51°13.676 2°55.923 25.913346 0.075748 53.651562  
2001-08-02 01:46:02 51°13.676 2°55.924 25.912302 0.075748 53.652381  
2001-08-02 01:46:07 51°13.676 2°55.924 25.91219 0.075748 53.652381  
2001-08-02 01:46:12 51°13.676 2°55.923 25.91219 0.075748 53.652381  
2001-08-02 01:46:17 51°13.676 2°55.923 25.912004 0.075748 53.652381  
2001-08-02 01:46:22 51°13.676 2°55.923 25.912227 0.075748 53.6532  
2001-08-02 01:46:27 51°13.676 2°55.923 25.911147 0.075748 53.652381  
2001-08-02 01:46:32 51°13.676 2°55.923 25.910998 0.075748 53.652381  
2001-08-02 01:46:37 51°13.676 2°55.923 25.911296 0.075748 53.652381  
2001-08-02 01:46:42 51°13.676 2°55.923 25.911296 0.075748 53.652381  
2001-08-02 01:46:47 51°13.676 2°55.923 25.911929 0.075748 53.652381  
2001-08-02 01:46:52 51°13.676 2°55.923 25.912265 0.075748 53.652381  
2001-08-02 01:46:57 51°13.676 2°55.923 25.912339 0.075748 53.652381  
2001-08-02 01:47:02 51°13.676 2°55.923 25.910998 0.075748 53.651562  
2001-08-02 01:47:07 51°13.676 2°55.923 25.910364 0.075748 53.652381  
2001-08-02 01:47:12 51°13.676 2°55.923 25.910364 0.075748 53.652381  
2001-08-02 01:47:17 51°13.676 2°55.923 25.910588 0.075748 53.651562  
2001-08-02 01:47:22 51°13.676 2°55.923 25.910923 0.075748 53.651562  
2001-08-02 01:47:27 51°13.676 2°55.923 25.911557 0.075748 53.651562  
2001-08-02 01:47:32 51°13.676 2°55.923 25.91178 0.075748 53.6532  
2001-08-02 01:47:37 51°13.676 2°55.923 25.911296 0.075748 53.651562  
2001-08-02 01:47:42 51°13.676 2°55.923 25.911296 0.075748 53.651562  
2001-08-02 01:47:47 51°13.676 2°55.923 25.908873 0.075748 53.652381  
2001-08-02 01:47:52 51°13.676 2°55.924 25.909097 0.075748 53.6532  
2001-08-02 01:47:57 51°13.676 2°55.924 25.909469 0.075748 53.652381  
2001-08-02 01:48:02 51°13.676 2°55.924 25.909581 0.075748 53.652381  
2001-08-02 01:48:07 51°13.676 2°55.924 25.909432 0.075748 53.651562  
2001-08-02 01:48:12 51°13.676 2°55.924 25.909432 0.075748 53.651562  
2001-08-02 01:48:17 51°13.676 2°55.923 25.909432 0.075748 53.652381  
2001-08-02 01:48:22 51°13.676 2°55.923 25.909097 0.075748 53.652381  
2001-08-02 01:48:27 51°13.676 2°55.923 25.907867 0.075748 53.652381  
2001-08-02 01:48:32 51°13.676 2°55.923 25.907941 0.075748 53.652381  
2001-08-02 01:48:37 51°13.676 2°55.923 25.90809 0.075748 53.652381  
2001-08-02 01:48:42 51°13.676 2°55.923 25.90809 0.075748 53.652381  
2001-08-02 01:48:47 51°13.676 2°55.923 25.908575 0.075748 53.651562  
2001-08-02 01:48:52 51°13.676 2°55.923 25.907867 0.075748 53.652381  
2001-08-02 01:48:57 51°13.676 2°55.923 25.907196 0.075748 53.651562  
2001-08-02 01:49:02 51°13.676 2°55.923 25.907233 0.075748 53.652381  
2001-08-02 01:49:07 51°13.676 2°55.923 25.907009 0.075748 53.651562  
2001-08-02 01:49:12 51°13.676 2°55.923 25.907009 0.075748 53.651562  
2001-08-02 01:49:17 51°13.677 2°55.923 25.906301 0.075748 53.652381  
2001-08-02 01:49:22 51°13.677 2°55.923 25.905966 0.075748 53.651562  
2001-08-02 01:49:27 51°13.677 2°55.923 25.905332 0.075748 53.651562  
2001-08-02 01:49:32 51°13.677 2°55.923 25.905034 0.075748 53.651562  
2001-08-02 01:49:37 51°13.677 2°55.923 25.905481 0.075748 53.652381  
2001-08-02 01:49:42 51°13.677 2°55.923 25.905481 0.075748 53.652381  
2001-08-02 01:49:47 51°13.677 2°55.923 25.906115 0.075748 53.651562  
2001-08-02 01:49:52 51°13.677 2°55.924 25.905966 0.075748 53.652381  
2001-08-02 01:49:57 51°13.677 2°55.924 25.90604 0.075748 53.651562  
2001-08-02 01:50:02 51°13.677 2°55.924 25.906525 0.075748 53.652381  
2001-08-02 01:50:07 51°13.677 2°55.924 25.906748 0.075748 53.652381  
2001-08-02 01:50:12 51°13.677 2°55.924 25.906748 0.075748 53.652381  
2001-08-02 01:50:17 51°13.677 2°55.924 25.906898 0.075748 53.651562  
2001-08-02 01:50:22 51°13.677 2°55.924 25.906115 0.075748 53.651562  
2001-08-02 01:50:27 51°13.677 2°55.924 25.906599 0.075748 53.652381  
2001-08-02 01:50:32 51°13.677 2°55.924 25.906525 0.075748 53.651562  
2001-08-02 01:50:37 51°13.677 2°55.924 25.906301 0.075748 53.651562  
2001-08-02 01:50:42 51°13.677 2°55.924 25.906301 0.075748 53.651562  
2001-08-02 01:50:47 51°13.677 2°55.924 25.903617 0.075748 53.651562  
2001-08-02 01:50:52 51°13.677 2°55.924 25.903207 0.075748 53.652381  
2001-08-02 01:50:57 51°13.677 2°55.924 25.901418 0.075748 53.651562  
2001-08-02 01:51:02 51°13.677 2°55.924 25.901195 0.075748 53.652381  
2001-08-02 01:51:07 51°13.677 2°55.924 25.901195 0.075748 53.652381  
2001-08-02 01:51:12 51°13.677 2°55.924 25.901195 0.075748 53.652381  
2001-08-02 01:51:17 51°13.677 2°55.924 25.901083 0.075748 53.652381  
2001-08-02 01:51:22 51°13.677 2°55.924 25.900561 0.075748 53.651562  
2001-08-02 01:51:27 51°13.677 2°55.924 25.900635 0.075748 53.651562  
2001-08-02 01:51:32 51°13.677 2°55.924 25.900934 0.075748 53.652381  
2001-08-02 01:51:37 51°13.677 2°55.924 25.901344 0.075748 53.651562  
2001-08-02 01:51:42 51°13.677 2°55.924 25.901344 0.075748 53.651562  
2001-08-02 01:51:47 51°13.677 2°55.924 25.901716 0.075748 53.651562  
2001-08-02 01:51:52 51°13.677 2°55.924 25.901903 0.075748 53.652381  
2001-08-02 01:51:57 51°13.677 2°55.924 25.90235 0.075748 53.651562  
2001-08-02 01:52:02 51°13.677 2°55.924 25.901791 0.075748 53.652381  
2001-08-02 01:52:07 51°13.677 2°55.924 25.900002 0.075748 53.652381  
2001-08-02 01:52:12 51°13.677 2°55.924 25.900002 0.075748 53.652381  
2001-08-02 01:52:17 51°13.677 2°55.924 25.899368 0.075748 53.652381  
2001-08-02 01:52:22 51°13.676 2°55.924 25.899592 0.075748 53.651562  
2001-08-02 01:52:27 51°13.676 2°55.924 25.900225 0.075748 53.652381  
2001-08-02 01:52:32 51°13.676 2°55.924 25.901269 0.075748 53.651562  
2001-08-02 01:52:37 51°13.676 2°55.924 25.901269 0.075748 53.652381  
2001-08-02 01:52:42 51°13.676 2°55.924 25.901269 0.075748 53.652381  
2001-08-02 01:52:47 51°13.677 2°55.924 25.901754 0.075748 53.651562  
2001-08-02 01:52:52 51°13.677 2°55.924 25.901418 0.075748 53.652381  
2001-08-02 01:52:57 51°13.677 2°55.924 25.899778 0.075748 53.651562  
2001-08-02 01:53:02 51°13.677 2°55.924 25.900002 0.075748 53.651562  
2001-08-02 01:53:07 51°13.677 2°55.924 25.897914 0.075748 53.650743  
2001-08-02 01:53:12 51°13.677 2°55.924 25.897914 0.075748 53.650743  
2001-08-02 01:53:17 51°13.677 2°55.924 25.897169 0.075748 53.651562  
2001-08-02 01:53:22 51°13.677 2°55.924 25.897094 0.075748 53.652381  
2001-08-02 01:53:27 51°13.677 2°55.924 25.89687 0.075748 53.652381  
2001-08-02 01:53:32 51°13.677 2°55.924 25.896386 0.075748 53.651562  
2001-08-02 01:53:37 51°13.677 2°55.924 25.895901 0.075748 53.651562  
2001-08-02 01:53:42 51°13.677 2°55.924 25.895901 0.075748 53.651562  
2001-08-02 01:53:47 51°13.677 2°55.924 25.896498 0.075748 53.651562  
2001-08-02 01:53:52 51°13.677 2°55.924 25.896162 0.075748 53.652381  
2001-08-02 01:53:57 51°13.677 2°55.924 25.897392 0.075748 53.651562  
2001-08-02 01:54:02 51°13.677 2°55.924 25.899144 0.075748 53.651562  
2001-08-02 01:54:07 51°13.677 2°55.924 25.90276 0.075748 53.651562  
2001-08-02 01:54:12 51°13.677 2°55.924 25.90276 0.075748 53.651562  
2001-08-02 01:54:17 51°13.677 2°55.924 25.903617 0.075748 53.651562  
2001-08-02 01:54:22 51°13.677 2°55.924 25.901567 0.075748 53.651562  
2001-08-02 01:54:27 51°13.677 2°55.924 25.900859 0.075748 53.651562  
2001-08-02 01:54:32 51°13.677 2°55.924 25.899443 0.075748 53.651562  
2001-08-02 01:54:37 51°13.677 2°55.924 25.897877 0.075748 53.650743  
2001-08-02 01:54:42 51°13.677 2°55.924 25.897877 0.075748 53.650743  
2001-08-02 01:54:47 51°13.677 2°55.924 25.897504 0.075748 53.652381  
2001-08-02 01:54:52 51°13.677 2°55.924 25.896311 0.075748 53.652381  
2001-08-02 01:54:57 51°13.677 2°55.924 25.899219 0.075748 53.652381  
2001-08-02 01:55:02 51°13.677 2°55.924 25.900002 0.075748 53.651562  
2001-08-02 01:55:07 51°13.677 2°55.924 25.901344 0.075748 53.651562  
2001-08-02 01:55:12 51°13.677 2°55.924 25.901344 0.075748 53.651562  
2001-08-02 01:55:17 51°13.677 2°55.924 25.900486 0.075748 53.651562  
2001-08-02 01:55:22 51°13.677 2°55.924 25.899219 0.075748 53.652381  
2001-08-02 01:55:27 51°13.677 2°55.924 25.897653 0.075748 53.651562  
2001-08-02 01:55:32 51°13.677 2°55.924 25.896684 0.075748 53.651562  
2001-08-02 01:55:37 51°13.677 2°55.924 25.896386 0.075748 53.650743  
2001-08-02 01:55:42 51°13.677 2°55.924 25.896386 0.075748 53.650743  
2001-08-02 01:55:47 51°13.677 2°55.924 25.896162 0.075748 53.651562  
2001-08-02 01:55:52 51°13.677 2°55.924 25.895603 0.075748 53.652381  
2001-08-02 01:55:57 51°13.677 2°55.924 25.894969 0.075748 53.651562  
2001-08-02 01:56:02 51°13.677 2°55.924 25.893963 0.075748 53.652381  
2001-08-02 01:56:07 51°13.677 2°55.924 25.893478 0.075748 53.651562  
2001-08-02 01:56:12 51°13.677 2°55.924 25.893478 0.075748 53.651562  
2001-08-02 01:56:17 51°13.677 2°55.924 25.892471 0.075748 53.652381  
2001-08-02 01:56:22 51°13.677 2°55.924 25.892695 0.075748 53.651562  
2001-08-02 01:56:27 51°13.677 2°55.924 25.892695 0.075748 53.651562  
2001-08-02 01:56:32 51°13.677 2°55.924 25.893329 0.075748 53.651562  
2001-08-02 01:56:37 51°13.676 2°55.924 25.89221 0.075748 53.651562  
2001-08-02 01:56:42 51°13.676 2°55.924 25.89221 0.075748 53.651562  
2001-08-02 01:56:47 51°13.676 2°55.924 25.892397 0.075748 53.651562  
2001-08-02 01:56:52 51°13.676 2°55.924 25.891129 0.075748 53.651562  
2001-08-02 01:56:57 51°13.676 2°55.924 25.891987 0.075748 53.650743  
2001-08-02 01:57:02 51°13.676 2°55.924 25.891614 0.075748 53.651562  
2001-08-02 01:57:07 51°13.677 2°55.924 25.891428 0.075748 53.651562  
2001-08-02 01:57:12 51°13.677 2°55.924 25.891428 0.075748 53.651562  
2001-08-02 01:57:17 51°13.677 2°55.924 25.891614 0.075748 53.652381  
2001-08-02 01:57:22 51°13.677 2°55.924 25.892024 0.075748 53.651562  
2001-08-02 01:57:27 51°13.677 2°55.924 25.891912 0.075748 53.651562  
2001-08-02 01:57:32 51°13.677 2°55.924 25.893627 0.075748 53.652381  
2001-08-02 01:57:37 51°13.677 2°55.924 25.892322 0.075748 53.651562  
2001-08-02 01:57:42 51°13.677 2°55.924 25.892322 0.075748 53.651562  
2001-08-02 01:57:47 51°13.677 2°55.924 25.891055 0.075748 53.652381  
2001-08-02 01:57:52 51°13.677 2°55.924 25.890831 0.075748 53.651562  
2001-08-02 01:57:57 51°13.677 2°55.924 25.889862 0.075748 53.652381  
2001-08-02 01:58:02 51°13.677 2°55.924 25.888781 0.075748 53.651562  
2001-08-02 01:58:07 51°13.677 2°55.924 25.888296 0.075748 53.652381  
2001-08-02 01:58:12 51°13.677 2°55.925 25.888296 0.075748 53.652381  
2001-08-02 01:58:17 51°13.677 2°55.925 25.887811 0.075748 53.652381  
2001-08-02 01:58:22 51°13.677 2°55.925 25.887289 0.075748 53.652381  
2001-08-02 01:58:27 51°13.677 2°55.925 25.887774 0.075748 53.652381  
2001-08-02 01:58:32 51°13.677 2°55.925 25.886879 0.075748 53.651562  
2001-08-02 01:58:37 51°13.677 2°55.925 25.887028 0.075748 53.652381  
2001-08-02 01:58:42 51°13.677 2°55.925 25.887028 0.075748 53.652381  
2001-08-02 01:58:47 51°13.677 2°55.925 25.889414 0.075748 53.651562  
2001-08-02 01:58:52 51°13.677 2°55.925 25.88893 0.075748 53.652381  
2001-08-02 01:58:57 51°13.677 2°55.925 25.889414 0.075748 53.651562  
2001-08-02 01:59:02 51°13.677 2°55.925 25.887364 0.075748 53.651562  
2001-08-02 01:59:07 51°13.677 2°55.925 25.887103 0.075748 53.650743  
2001-08-02 01:59:12 51°13.677 2°55.925 25.887103 0.075748 53.650743  
2001-08-02 01:59:17 51°13.677 2°55.925 25.886916 0.075748 53.6532  
2001-08-02 01:59:22 51°13.677 2°55.925 25.889414 0.075748 53.652381  
2001-08-02 01:59:27 51°13.677 2°55.925 25.886096 0.075748 53.652381  
2001-08-02 01:59:32 51°13.677 2°55.925 25.890048 0.075748 53.651562  
2001-08-02 01:59:37 51°13.677 2°55.925 25.888072 0.075748 53.652381  
2001-08-02 01:59:42 51°13.677 2°55.926 25.888072 0.075748 53.652381  
2001-08-02 01:59:47 51°13.677 2°55.926 25.886879 0.075748 53.652381  
2001-08-02 01:59:52 51°13.677 2°55.926 25.886879 0.075748 53.652381  
2001-08-02 01:59:57 51°13.677 2°55.925 25.887289 0.075748 53.651562  
2001-08-02 02:00:02 51°13.677 2°55.925 25.8855 0.075748 53.652381  
2001-08-02 02:00:07 51°13.677 2°55.926 25.882405 0.075748 53.650743  
2001-08-02 02:00:12 51°13.677 2°55.926 25.882405 0.075748 53.650743  
2001-08-02 02:00:17 51°13.677 2°55.926 25.884679 0.075748 53.652381  
2001-08-02 02:00:22 51°13.677 2°55.926 25.885649 0.075748 53.652381  
2001-08-02 02:00:27 51°13.677 2°55.926 25.885239 0.075748 53.652381  
2001-08-02 02:00:32 51°13.677 2°55.926 25.88248 0.075748 53.651562  
2001-08-02 02:00:37 51°13.677 2°55.925 25.884717 0.075748 53.6532  
2001-08-02 02:00:42 51°13.677 2°55.925 25.884717 0.075748 53.6532  
2001-08-02 02:00:47 51°13.677 2°55.925 25.88453 0.075748 53.6532  
2001-08-02 02:00:52 51°13.677 2°55.925 25.882964 0.075748 53.652381  
2001-08-02 02:00:57 51°13.677 2°55.925 25.883188 0.075748 53.652381  
2001-08-02 02:01:02 51°13.677 2°55.925 25.882517 0.075748 53.652381  
2001-08-02 02:01:07 51°13.677 2°55.925 25.881846 0.075748 53.652381  
2001-08-02 02:01:12 51°13.677 2°55.925 25.881846 0.075748 53.652381  
2001-08-02 02:01:17 51°13.677 2°55.925 25.881249 0.075748 53.652381  
2001-08-02 02:01:22 51°13.677 2°55.925 25.8811 0.075748 53.652381  
2001-08-02 02:01:27 51°13.677 2°55.925 25.882256 0.075748 53.651562  
2001-08-02 02:01:32 51°13.677 2°55.925 25.881846 0.075748 53.652381  
2001-08-02 02:01:37 51°13.677 2°55.925 25.881883 0.075748 53.652381  
2001-08-02 02:01:42 51°13.677 2°55.925 25.881883 0.075748 53.652381  
2001-08-02 02:01:47 51°13.677 2°55.925 25.880317 0.075748 53.652381  
2001-08-02 02:01:52 51°13.677 2°55.925 25.88013 0.075748 53.652381  
2001-08-02 02:01:57 51°13.677 2°55.925 25.876849 0.075748 53.651562  
2001-08-02 02:02:02 51°13.677 2°55.925 25.876924 0.075748 53.652381  
2001-08-02 02:02:07 51°13.677 2°55.925 25.876439 0.075748 53.652381  
2001-08-02 02:02:12 51°13.677 2°55.925 25.876439 0.075748 53.652381  
2001-08-02 02:02:17 51°13.677 2°55.925 25.87629 0.075748 53.652381  
2001-08-02 02:02:22 51°13.677 2°55.925 25.876439 0.075748 53.652381  
2001-08-02 02:02:27 51°13.677 2°55.925 25.875731 0.075748 53.652381  
2001-08-02 02:02:32 51°13.677 2°55.925 25.875805 0.075748 53.652381  
2001-08-02 02:02:37 51°13.677 2°55.925 25.875805 0.075748 53.652381  
2001-08-02 02:02:42 51°13.677 2°55.925 25.875805 0.075748 53.652381  
2001-08-02 02:02:47 51°13.677 2°55.925 25.875992 0.075748 53.652381  
2001-08-02 02:02:52 51°13.677 2°55.925 25.875731 0.075748 53.652381  
2001-08-02 02:02:57 51°13.677 2°55.925 25.874649 0.075748 53.652381  
2001-08-02 02:03:02 51°13.677 2°55.925 25.874239 0.075748 53.652381  
2001-08-02 02:03:07 51°13.677 2°55.925 25.873381 0.075748 53.652381  
2001-08-02 02:03:12 51°13.677 2°55.925 25.873381 0.075748 53.652381  
2001-08-02 02:03:17 51°13.677 2°55.925 25.87353 0.075748 53.6532  
2001-08-02 02:03:22 51°13.677 2°55.925 25.872934 0.075748 53.652381  
2001-08-02 02:03:27 51°13.677 2°55.925 25.872039 0.075748 53.652381  
2001-08-02 02:03:32 51°13.677 2°55.925 25.87189 0.075748 53.652381  
2001-08-02 02:03:37 51°13.677 2°55.925 25.87189 0.075748 53.6532  
2001-08-02 02:03:42 51°13.677 2°55.925 25.87189 0.075748 53.6532  
2001-08-02 02:03:47 51°13.677 2°55.925 25.871815 0.075748 53.6532  
2001-08-02 02:03:52 51°13.677 2°55.924 25.871666 0.075748 53.652381  
2001-08-02 02:03:57 51°13.677 2°55.924 25.871666 0.075748 53.6532  
2001-08-02 02:04:02 51°13.678 2°55.924 25.87133 0.075748 53.6532  
2001-08-02 02:04:07 51°13.678 2°55.924 25.870473 0.075748 53.652381  
2001-08-02 02:04:12 51°13.678 2°55.924 25.870473 0.075748 53.652381  
2001-08-02 02:04:17 51°13.678 2°55.924 25.870174 0.075748 53.652381  
2001-08-02 02:04:22 51°13.678 2°55.924 25.869466 0.075748 53.6532  
2001-08-02 02:04:27 51°13.678 2°55.924 25.86954 0.075748 53.652381  
2001-08-02 02:04:32 51°13.678 2°55.924 25.869764 0.075748 53.651562  
2001-08-02 02:04:37 51°13.678 2°55.924 25.869689 0.075748 53.652381  
2001-08-02 02:04:42 51°13.678 2°55.924 25.869689 0.075748 53.652381  
2001-08-02 02:04:47 51°13.678 2°55.924 25.869391 0.075748 53.6532  
2001-08-02 02:04:52 51°13.678 2°55.924 25.868421 0.075748 53.6532  
2001-08-02 02:04:57 51°13.678 2°55.924 25.867564 0.075748 53.6532  
2001-08-02 02:05:02 51°13.678 2°55.924 25.867899 0.075748 53.652381  
2001-08-02 02:05:07 51°13.679 2°55.924 25.867489 0.075748 53.6532  
2001-08-02 02:05:12 51°13.679 2°55.924 25.867489 0.075748 53.6532  
2001-08-02 02:05:17 51°13.679 2°55.924 25.86734 0.075748 53.6532  
2001-08-02 02:05:22 51°13.679 2°55.924 25.86734 0.075748 53.6532  
2001-08-02 02:05:27 51°13.678 2°55.923 25.867042 0.075748 53.6532  
2001-08-02 02:05:32 51°13.678 2°55.923 25.866631 0.075748 53.6532  
2001-08-02 02:05:37 51°13.678 2°55.923 25.865923 0.075748 53.654019  
2001-08-02 02:05:42 51°13.677 2°55.923 25.865923 0.075748 53.654019  
2001-08-02 02:05:47 51°13.677 2°55.923 25.865624 0.075748 53.6532  
2001-08-02 02:05:52 51°13.677 2°55.923 25.865624 0.075748 53.6532  
2001-08-02 02:05:57 51°13.677 2°55.923 25.865214 0.075748 53.6532  
2001-08-02 02:06:02 51°13.677 2°55.923 25.866221 0.075748 53.6532  
2001-08-02 02:06:07 51°13.677 2°55.923 25.867489 0.075748 53.6532  
2001-08-02 02:06:12 51°13.677 2°55.923 25.867489 0.075748 53.6532  
2001-08-02 02:06:17 51°13.677 2°55.923 25.867116 0.075748 53.652381  
2001-08-02 02:06:22 51°13.677 2°55.923 25.866781 0.075748 53.6532  
2001-08-02 02:06:27 51°13.677 2°55.924 25.865923 0.075748 53.6532  
2001-08-02 02:06:32 51°13.677 2°55.924 25.864916 0.075748 53.652381  
2001-08-02 02:06:37 51°13.678 2°55.924 25.865214 0.075748 53.654019  
2001-08-02 02:06:42 51°13.678 2°55.924 25.865214 0.075748 53.654019  
2001-08-02 02:06:47 51°13.677 2°55.924 25.865997 0.075748 53.6532  
2001-08-02 02:06:52 51°13.677 2°55.924 25.865289 0.075748 53.6532  
2001-08-02 02:06:57 51°13.677 2°55.924 25.866408 0.075748 53.6532  
2001-08-02 02:07:02 51°13.677 2°55.924 25.868981 0.075748 53.652381  
2001-08-02 02:07:07 51°13.677 2°55.924 25.868272 0.075748 53.652381  
2001-08-02 02:07:12 51°13.678 2°55.924 25.868272 0.075748 53.652381  
2001-08-02 02:07:17 51°13.678 2°55.924 25.868198 0.075748 53.655656  
2001-08-02 02:07:22 51°13.678 2°55.924 25.869317 0.075748 53.656475  
2001-08-02 02:07:27 51°13.677 2°55.924 25.870323 0.075748 53.658932  
2001-08-02 02:07:32 51°13.677 2°55.924 25.86913 0.075748 53.658113  
2001-08-02 02:07:37 51°13.677 2°55.924 25.871666 0.075748 53.656475  
2001-08-02 02:07:42 51°13.677 2°55.924 25.871666 0.075748 53.656475  
2001-08-02 02:07:47 51°13.678 2°55.924 25.867825 0.075748 53.6532  
2001-08-02 02:07:52 51°13.678 2°55.924 25.869689 0.075748 53.649106  
2001-08-02 02:07:57 51°13.679 2°55.925 25.870249 0.075748 53.64665  
2001-08-02 02:08:02 51°13.679 2°55.925 25.86775 0.075748 53.64665  
2001-08-02 02:08:07 51°13.679 2°55.924 25.866072 0.075748 53.649925  
2001-08-02 02:08:12 51°13.678 2°55.924 25.866072 0.075748 53.649925  
2001-08-02 02:08:17 51°13.678 2°55.924 25.867265 0.075748 53.6532  
2001-08-02 02:08:22 51°13.679 2°55.924 25.866781 0.075748 53.655656  
2001-08-02 02:08:27 51°13.679 2°55.925 25.867042 0.075748 53.658113  
2001-08-02 02:08:32 51°13.678 2°55.924 25.865848 0.075748 53.658932  
2001-08-02 02:08:37 51°13.678 2°55.924 25.863946 0.075748 53.658932  
2001-08-02 02:08:42 51°13.678 2°55.924 25.863946 0.075748 53.658932  
2001-08-02 02:08:47 51°13.678 2°55.924 25.863648 0.075748 53.656475  
2001-08-02 02:08:52 51°13.678 2°55.924 25.863499 0.075748 53.655656  
2001-08-02 02:08:57 51°13.678 2°55.924 25.862865 0.075748 53.655656  
2001-08-02 02:09:02 51°13.678 2°55.924 25.862081 0.075748 53.654019  
2001-08-02 02:09:07 51°13.677 2°55.924 25.861671 0.075748 53.654019  
2001-08-02 02:09:12 51°13.677 2°55.924 25.861671 0.075748 53.654019  
2001-08-02 02:09:17 51°13.677 2°55.924 25.861037 0.075748 53.654019  
2001-08-02 02:09:22 51°13.677 2°55.924 25.861037 0.075748 53.654838  
2001-08-02 02:09:27 51°13.677 2°55.924 25.86044 0.075748 53.657294  
2001-08-02 02:09:32 51°13.677 2°55.924 25.859806 0.075748 53.659751  
2001-08-02 02:09:37 51°13.677 2°55.924 25.859098 0.075748 53.660571  
2001-08-02 02:09:42 51°13.677 2°55.924 25.859098 0.075748 53.660571  
2001-08-02 02:09:47 51°13.677 2°55.924 25.859172 0.075748 53.657294  
2001-08-02 02:09:52 51°13.677 2°55.924 25.858837 0.075748 53.654019  
2001-08-02 02:09:57 51°13.677 2°55.924 25.858762 0.075748 53.649925  
2001-08-02 02:10:02 51°13.677 2°55.924 25.858874 0.075748 53.647469  
2001-08-02 02:10:07 51°13.677 2°55.924 25.858762 0.075748 53.647469  
2001-08-02 02:10:12 51°13.677 2°55.924 25.858762 0.075748 53.647469  
2001-08-02 02:10:17 51°13.677 2°55.924 25.858949 0.075748 53.649106  
2001-08-02 02:10:22 51°13.677 2°55.924 25.858389 0.075748 53.652381  
2001-08-02 02:10:27 51°13.677 2°55.924 25.858389 0.075748 53.656475  
2001-08-02 02:10:32 51°13.677 2°55.924 25.858538 0.075748 53.658113  
2001-08-02 02:10:37 51°13.677 2°55.924 25.857457 0.075748 53.659751  
2001-08-02 02:10:42 51°13.677 2°55.924 25.857457 0.075748 53.659751  
2001-08-02 02:10:47 51°13.677 2°55.924 25.856972 0.075748 53.658932  
2001-08-02 02:10:52 51°13.677 2°55.924 25.857046 0.075748 53.658113  
2001-08-02 02:10:57 51°13.677 2°55.924 25.854771 0.075748 53.656475  
2001-08-02 02:11:02 51°13.677 2°55.923 25.854696 0.075748 53.655656  
2001-08-02 02:11:07 51°13.677 2°55.923 25.855181 0.075748 53.654838  
2001-08-02 02:11:12 51°13.678 2°55.923 25.855181 0.075748 53.654838  
2001-08-02 02:11:17 51°13.678 2°55.923 25.854771 0.075748 53.655656  
2001-08-02 02:11:22 51°13.678 2°55.923 25.854771 0.075748 53.655656  
2001-08-02 02:11:27 51°13.677 2°55.923 25.854846 0.075748 53.656475  
2001-08-02 02:11:32 51°13.677 2°55.923 25.854361 0.075748 53.656475  
2001-08-02 02:11:37 51°13.677 2°55.923 25.853652 0.075748 53.655656  
2001-08-02 02:11:42 51°13.677 2°55.923 25.853652 0.075748 53.655656  
2001-08-02 02:11:47 51°13.677 2°55.923 25.85272 0.075748 53.654838  
2001-08-02 02:11:52 51°13.677 2°55.923 25.852272 0.075748 53.654019  
2001-08-02 02:11:57 51°13.677 2°55.923 25.851638 0.075748 53.6532  
2001-08-02 02:12:02 51°13.677 2°55.923 25.851638 0.075748 53.654019  
2001-08-02 02:12:07 51°13.678 2°55.923 25.851862 0.075748 53.654019  
2001-08-02 02:12:12 51°13.678 2°55.923 25.851862 0.075748 53.654019  
2001-08-02 02:12:17 51°13.678 2°55.923 25.851862 0.075748 53.654838  
2001-08-02 02:12:22 51°13.678 2°55.923 25.851712 0.075748 53.655656  
2001-08-02 02:12:27 51°13.678 2°55.923 25.852011 0.075748 53.656475  
2001-08-02 02:12:32 51°13.678 2°55.923 25.850519 0.075748 53.655656  
2001-08-02 02:12:37 51°13.678 2°55.923 25.85037 0.075748 53.654838  
2001-08-02 02:12:42 51°13.678 2°55.923 25.85037 0.075748 53.654838  
2001-08-02 02:12:47 51°13.678 2°55.923 25.850854 0.075748 53.654019  
2001-08-02 02:12:52 51°13.677 2°55.923 25.849362 0.075748 53.654019  
2001-08-02 02:12:57 51°13.677 2°55.923 25.849735 0.075748 53.654019  
2001-08-02 02:13:02 51°13.677 2°55.923 25.85022 0.075748 53.6532  
2001-08-02 02:13:07 51°13.677 2°55.923 25.849661 0.075748 53.654019  
2001-08-02 02:13:12 51°13.677 2°55.923 25.849661 0.075748 53.654019  
2001-08-02 02:13:17 51°13.677 2°55.923 25.849288 0.075748 53.655656  
2001-08-02 02:13:22 51°13.677 2°55.923 25.848243 0.075748 53.656475  
2001-08-02 02:13:27 51°13.677 2°55.923 25.848579 0.075748 53.656475  
2001-08-02 02:13:32 51°13.677 2°55.923 25.84802 0.075748 53.656475  
2001-08-02 02:13:37 51°13.677 2°55.923 25.848504 0.075748 53.654838  
2001-08-02 02:13:42 51°13.677 2°55.923 25.848504 0.075748 53.654838  
2001-08-02 02:13:47 51°13.677 2°55.923 25.848728 0.075748 53.654838  
2001-08-02 02:13:52 51°13.677 2°55.923 25.849139 0.075748 53.6532  
2001-08-02 02:13:57 51°13.677 2°55.923 25.848169 0.075748 53.6532  
2001-08-02 02:14:02 51°13.677 2°55.923 25.84787 0.075748 53.6532  
2001-08-02 02:14:07 51°13.677 2°55.923 25.847609 0.075748 53.654019  
2001-08-02 02:14:12 51°13.677 2°55.923 25.847609 0.075748 53.654019  
2001-08-02 02:14:17 51°13.677 2°55.923 25.847385 0.075748 53.655656  
2001-08-02 02:14:22 51°13.677 2°55.923 25.84787 0.075748 53.655656  
2001-08-02 02:14:27 51°13.677 2°55.923 25.847684 0.075748 53.656475  
2001-08-02 02:14:32 51°13.677 2°55.923 25.847311 0.075748 53.655656  
2001-08-02 02:14:37 51°13.677 2°55.923 25.847535 0.075748 53.655656  
2001-08-02 02:14:42 51°13.677 2°55.923 25.847535 0.075748 53.655656  
2001-08-02 02:14:47 51°13.677 2°55.923 25.846304 0.075748 53.655656  
2001-08-02 02:14:52 51°13.677 2°55.923 25.845893 0.075748 53.655656  
2001-08-02 02:14:57 51°13.677 2°55.923 25.845968 0.075748 53.655656  
2001-08-02 02:15:02 51°13.677 2°55.923 25.846042 0.075748 53.655656  
2001-08-02 02:15:07 51°13.677 2°55.923 25.846042 0.075748 53.655656  
2001-08-02 02:15:12 51°13.677 2°55.923 25.846042 0.075748 53.655656  
2001-08-02 02:15:17 51°13.677 2°55.923 25.844811 0.075748 53.655656  
2001-08-02 02:15:22 51°13.677 2°55.923 25.844326 0.075748 53.657294  
2001-08-02 02:15:27 51°13.677 2°55.923 25.844103 0.075748 53.655656  
2001-08-02 02:15:32 51°13.677 2°55.923 25.844103 0.075748 53.656475  
2001-08-02 02:15:37 51°13.677 2°55.923 25.844028 0.075748 53.657294  
2001-08-02 02:15:42 51°13.677 2°55.923 25.844028 0.075748 53.657294  
2001-08-02 02:15:47 51°13.677 2°55.923 25.84455 0.075748 53.657294  
2001-08-02 02:15:52 51°13.677 2°55.923 25.844886 0.075748 53.657294  
2001-08-02 02:15:57 51°13.677 2°55.923 25.844177 0.075748 53.655656  
2001-08-02 02:16:02 51°13.677 2°55.923 25.844028 0.075748 53.654838  
2001-08-02 02:16:07 51°13.677 2°55.923 25.844177 0.075748 53.654838  
2001-08-02 02:16:12 51°13.677 2°55.923 25.844177 0.075748 53.654838  
2001-08-02 02:16:17 51°13.677 2°55.923 25.843319 0.075748 53.654019  
2001-08-02 02:16:22 51°13.677 2°55.923 25.843394 0.075748 53.654838  
2001-08-02 02:16:27 51°13.677 2°55.923 25.843207 0.075748 53.654838  
2001-08-02 02:16:32 51°13.677 2°55.923 25.84276 0.075748 53.655656  
2001-08-02 02:16:37 51°13.677 2°55.923 25.84261 0.075748 53.656475  
2001-08-02 02:16:42 51°13.677 2°55.923 25.84261 0.075748 53.656475  
2001-08-02 02:16:47 51°13.677 2°55.923 25.84276 0.075748 53.657294  
2001-08-02 02:16:52 51°13.677 2°55.923 25.841267 0.075748 53.657294  
2001-08-02 02:16:57 51°13.677 2°55.923 25.840633 0.075748 53.657294  
2001-08-02 02:17:02 51°13.677 2°55.923 25.841043 0.075748 53.656475  
2001-08-02 02:17:07 51°13.677 2°55.923 25.841267 0.075748 53.655656  
2001-08-02 02:17:12 51°13.677 2°55.923 25.841267 0.075748 53.655656  
2001-08-02 02:17:17 51°13.677 2°55.923 25.841715 0.075748 53.656475  
2001-08-02 02:17:22 51°13.677 2°55.923 25.842051 0.075748 53.657294  
2001-08-02 02:17:27 51°13.677 2°55.923 25.841566 0.075748 53.657294  
2001-08-02 02:17:32 51°13.677 2°55.923 25.839999 0.075748 53.657294  
2001-08-02 02:17:37 51°13.677 2°55.923 25.840148 0.075748 53.657294  
2001-08-02 02:17:42 51°13.677 2°55.923 25.840148 0.075748 53.657294  
2001-08-02 02:17:47 51°13.677 2°55.923 25.83985 0.075748 53.657294  
2001-08-02 02:17:52 51°13.677 2°55.924 25.839775 0.075748 53.657294  
2001-08-02 02:17:57 51°13.677 2°55.924 25.839775 0.075748 53.657294  
2001-08-02 02:18:02 51°13.677 2°55.924 25.840148 0.075748 53.655656  
2001-08-02 02:18:07 51°13.677 2°55.924 25.840372 0.075748 53.655656  
2001-08-02 02:18:12 51°13.677 2°55.924 25.840372 0.075748 53.655656  
2001-08-02 02:18:17 51°13.677 2°55.924 25.840223 0.075748 53.656475  
2001-08-02 02:18:22 51°13.677 2°55.924 25.839924 0.075748 53.656475  
2001-08-02 02:18:27 51°13.677 2°55.924 25.840074 0.075748 53.657294  
2001-08-02 02:18:32 51°13.677 2°55.924 25.839924 0.075748 53.657294  
2001-08-02 02:18:37 51°13.677 2°55.924 25.837499 0.075748 53.657294  
2001-08-02 02:18:42 51°13.677 2°55.924 25.837499 0.075748 53.657294  
2001-08-02 02:18:47 51°13.677 2°55.924 25.837014 0.075748 53.657294  
2001-08-02 02:18:52 51°13.677 2°55.924 25.83694 0.075748 53.657294  
2001-08-02 02:18:57 51°13.677 2°55.924 25.836641 0.075748 53.657294  
2001-08-02 02:19:02 51°13.677 2°55.924 25.837014 0.075748 53.656475  
2001-08-02 02:19:07 51°13.677 2°55.924 25.83679 0.075748 53.657294  
2001-08-02 02:19:12 51°13.677 2°55.924 25.83679 0.075748 53.657294  
2001-08-02 02:19:17 51°13.677 2°55.923 25.836641 0.075748 53.657294  
2001-08-02 02:19:22 51°13.677 2°55.923 25.836567 0.075748 53.657294  
2001-08-02 02:19:27 51°13.677 2°55.923 25.837014 0.075748 53.658113  
2001-08-02 02:19:32 51°13.677 2°55.923 25.836156 0.075748 53.657294  
2001-08-02 02:19:37 51°13.677 2°55.924 25.836082 0.075748 53.657294  
2001-08-02 02:19:42 51°13.677 2°55.924 25.836082 0.075748 53.657294  
2001-08-02 02:19:47 51°13.677 2°55.924 25.83638 0.075748 53.658113  
2001-08-02 02:19:52 51°13.677 2°55.924 25.837089 0.075748 53.657294  
2001-08-02 02:19:57 51°13.677 2°55.924 25.837164 0.075748 53.657294  
2001-08-02 02:20:02 51°13.677 2°55.924 25.836567 0.075748 53.658113  
2001-08-02 02:20:07 51°13.677 2°55.924 25.836865 0.075748 53.657294  
2001-08-02 02:20:12 51°13.677 2°55.924 25.836865 0.075748 53.657294  
2001-08-02 02:20:17 51°13.678 2°55.924 25.835746 0.075748 53.658113  
2001-08-02 02:20:22 51°13.678 2°55.924 25.835783 0.075748 53.657294  
2001-08-02 02:20:27 51°13.678 2°55.924 25.836007 0.075748 53.658113  
2001-08-02 02:20:32 51°13.678 2°55.924 25.835373 0.075748 53.658932  
2001-08-02 02:20:37 51°13.678 2°55.924 25.835522 0.075748 53.658113  
2001-08-02 02:20:42 51°13.678 2°55.924 25.835522 0.075748 53.658113  
2001-08-02 02:20:47 51°13.678 2°55.924 25.835597 0.075748 53.657294  
2001-08-02 02:20:52 51°13.678 2°55.924 25.835298 0.075748 53.658113  
2001-08-02 02:20:57 51°13.677 2°55.924 25.834179 0.075748 53.658113  
2001-08-02 02:21:02 51°13.677 2°55.924 25.834104 0.075748 53.658113  
2001-08-02 02:21:07 51°13.677 2°55.924 25.834664 0.075748 53.657294  
2001-08-02 02:21:12 51°13.677 2°55.924 25.834664 0.075748 53.657294  
2001-08-02 02:21:17 51°13.677 2°55.924 25.834664 0.075748 53.658113  
2001-08-02 02:21:22 51°13.677 2°55.924 25.834962 0.075748 53.658113  
2001-08-02 02:21:27 51°13.677 2°55.924 25.835373 0.075748 53.658113  
2001-08-02 02:21:32 51°13.677 2°55.924 25.835932 0.075748 53.658932  
2001-08-02 02:21:37 51°13.677 2°55.924 25.836567 0.075748 53.658932  
2001-08-02 02:21:42 51°13.677 2°55.924 25.836567 0.075748 53.658932  
2001-08-02 02:21:47 51°13.677 2°55.923 25.836305 0.075748 53.658113  
2001-08-02 02:21:52 51°13.677 2°55.923 25.835783 0.075748 53.658932  
2001-08-02 02:21:57 51°13.677 2°55.924 25.836007 0.075748 53.658113  
2001-08-02 02:22:02 51°13.677 2°55.924 25.835932 0.075748 53.658932  
2001-08-02 02:22:07 51°13.677 2°55.924 25.83388 0.075748 53.658932  
2001-08-02 02:22:12 51°13.677 2°55.924 25.83388 0.075748 53.658932  
2001-08-02 02:22:17 51°13.677 2°55.924 25.834179 0.075748 53.658932  
2001-08-02 02:22:22 51°13.677 2°55.924 25.833656 0.075748 53.658113  
2001-08-02 02:22:27 51°13.677 2°55.924 25.833694 0.075748 53.658932  
2001-08-02 02:22:32 51°13.677 2°55.924 25.833395 0.075748 53.658932  
2001-08-02 02:22:37 51°13.677 2°55.924 25.831679 0.075748 53.659751  
2001-08-02 02:22:42 51°13.677 2°55.924 25.831679 0.075748 53.659751  
2001-08-02 02:22:47 51°13.677 2°55.924 25.831268 0.075748 53.659751  
2001-08-02 02:22:52 51°13.677 2°55.924 25.831119 0.075748 53.658932  
2001-08-02 02:22:57 51°13.677 2°55.924 25.831828 0.075748 53.658932  
2001-08-02 02:23:02 51°13.677 2°55.923 25.831903 0.075748 53.659751  
2001-08-02 02:23:07 51°13.677 2°55.923 25.83056 0.075748 53.658932  
2001-08-02 02:23:12 51°13.677 2°55.923 25.83056 0.075748 53.658932  
2001-08-02 02:23:17 51°13.677 2°55.923 25.830783 0.075748 53.659751  
2001-08-02 02:23:22 51°13.677 2°55.923 25.831194 0.075748 53.658932